Location: Most
(50.5133°N, 13.6207°E)
Time: 00:41:46
(UTC+01:00)

ISS - Pass Details

Date: 16 July 2018
Orbit: 401 x 408 km, 51.6° (Epoch: 20 November)

Event Time Altitude Azimuth Distance (km) Brightness Sun altitude
Exits shadow 02:39:06 10° 269° (W) 1,464 -1.2 -15.5°
Drops below altitude 10° 02:45:44 10° 80° (E) 1,498 -0.5 -15.1°
Enters shadow 03:47:33 -58° 278° (W) 11,250 3.4 -10.3°
Maximum altitude 04:19:06 88° 190° (S) 423 -3.8 -7.1°
